When you browse on this site, cookies collect data to enhance your experience and personalize the content and advertising you see.
Visit our Privacy Policy to learn more. By continuing to use the site, you agree to this use of cookies and data.
  • In Netherlands
  • List of Countries
  • For 7 days
  • Water Temperature
  • Satellite Maps
  • Weather Map
  • Weather Widgets
  • user-avatar
    Login

    Hourly Weather Chernoyarskaya

    Today, 20 February, Wednesday

    Time Temperature Precipitation Wind Pressure Humidity
    00:00 -1°C° 0 mm 0 mps 755 mmHg 55%
    01:00 0°C° 0 mm 1 mps 755 mmHg 56%
    02:00 0°C° 0 mm 1 mps 754 mmHg 57%
    03:00 -3°C° 0 mm 2 mps 754 mmHg 54%
    04:00 -3°C° 0 mm 2 mps 754 mmHg 55%
    05:00 -3°C° 0 mm 2 mps 753 mmHg 56%
    06:00 -3°C° 0 mm 2 mps 753 mmHg 57%
    07:00 -2°C° 0 mm 2 mps 753 mmHg 53%
    08:00 -1°C° 0 mm 2 mps 753 mmHg 50%
    09:00 +1°C° 0 mm 2 mps 753 mmHg 45%
    10:00 +1°C° 0 mm 3 mps 752 mmHg 41%
    11:00 +3°C° 0 mm 3 mps 751 mmHg 37%
    12:00 +4°C° 0 mm 3 mps 751 mmHg 33%
    13:00 +5°C° 0 mm 3 mps 751 mmHg 32%
    14:00 +5°C° 0 mm 3 mps 750 mmHg 31%
    15:00 +5°C° 0 mm 4 mps 750 mmHg 30%
    16:00 +4°C° 0 mm 3 mps 750 mmHg 35%
    17:00 +4°C° 0 mm 2 mps 750 mmHg 39%
    18:00 +3°C° 0 mm 2 mps 750 mmHg 43%
    19:00 +3°C° 0 mm 1 mps 750 mmHg 46%
    20:00 +2°C° 0 mm 1 mps 750 mmHg 49%
    21:00 +1°C° 0 mm 0 mps 750 mmHg 53%
    22:00 0°C° 0 mm 0 mps 750 mmHg 54%
    23:00 0°C° 0 mm 0 mps 750 mmHg 56%

    Tomorrow, 21 February, Thursday

    Time Temperature Precipitation Wind Pressure Humidity
    00:00 0°C° 0 mm 0 mps 750 mmHg 58%
    01:00 0°C° 0 mm 0 mps 750 mmHg 59%
    02:00 +1°C° 0 mm 1 mps 749 mmHg 59%
    03:00 +1°C° 0 mm 1 mps 749 mmHg 60%
    04:00 +1°C° 0 mm 1 mps 749 mmHg 59%
    05:00 +1°C° 0 mm 1 mps 749 mmHg 59%
    06:00 +1°C° 0 mm 1 mps 749 mmHg 58%
    07:00 +2°C° 0 mm 1 mps 749 mmHg 54%
    08:00 +3°C° 0 mm 1 mps 749 mmHg 50%
    09:00 +4°C° 0 mm 1 mps 748 mmHg 46%
    10:00 +6°C° 0 mm 1 mps 748 mmHg 41%
    11:00 +7°C° 0 mm 1 mps 748 mmHg 36%
    12:00 +9°C° 0 mm 1 mps 747 mmHg 31%
    13:00 +10°C° 0 mm 1 mps 747 mmHg 29%
    14:00 +10°C° 0 mm 1 mps 747 mmHg 27%
    15:00 +10°C° 0 mm 2 mps 746 mmHg 24%
    16:00 +10°C° 0 mm 1 mps 746 mmHg 28%
    17:00 +9°C° 0 mm 1 mps 747 mmHg 32%
    18:00 +7°C° 0 mm 1 mps 747 mmHg 36%
    19:00 +7°C° 0 mm 1 mps 747 mmHg 37%
    20:00 +6°C° 0 mm 1 mps 747 mmHg 39%
    21:00 +5°C° 0 mm 0 mps 748 mmHg 40%
    22:00 +5°C° 0 mm 1 mps 748 mmHg 40%
    23:00 +5°C° 0 mm 1 mps 747 mmHg 41%

    Day after tomorrow, 22 February, Friday

    Time Temperature Precipitation Wind Pressure Humidity
    00:00 +5°C° 0 mm 1 mps 747 mmHg 41%
    01:00 +5°C° 0 mm 1 mps 748 mmHg 44%
    02:00 +4°C° 0 mm 1 mps 748 mmHg 48%
    03:00 +4°C° 0 mm 1 mps 748 mmHg 51%
    04:00 +4°C° 0 mm 1 mps 748 mmHg 60%
    05:00 +3°C° 0 mm 1 mps 748 mmHg 68%
    06:00 +3°C° 0 mm 1 mps 748 mmHg 77%
    07:00 +4°C° 0.1 mm 1 mps 748 mmHg 79%
    08:00 +4°C° 0.1 mm 1 mps 749 mmHg 81%
    09:00 +5°C° 0.1 mm 1 mps 749 mmHg 83%
    10:00 +5°C° 0.1 mm 1 mps 749 mmHg 77%
    11:00 +5°C° 0.1 mm 2 mps 749 mmHg 70%
    12:00 +4°C° 0.1 mm 3 mps 749 mmHg 64%
    13:00 +5°C° 0 mm 2 mps 748 mmHg 60%
    14:00 +6°C° 0 mm 2 mps 748 mmHg 57%
    15:00 +7°C° 0 mm 1 mps 748 mmHg 54%
    16:00 +6°C° 0 mm 1 mps 749 mmHg 57%
    17:00 +6°C° 0 mm 1 mps 749 mmHg 61%
    18:00 +6°C° 0 mm 1 mps 749 mmHg 64%
    19:00 +4°C° 0 mm 2 mps 749 mmHg 68%
    20:00 +4°C° 0 mm 2 mps 749 mmHg 72%
    21:00 +3°C° 0 mm 2 mps 750 mmHg 76%
    22:00 +3°C° 0 mm 2 mps 749 mmHg 80%
    23:00 +2°C° 0 mm 3 mps 749 mmHg 84%

    23 February, Saturday

    Time Temperature Precipitation Wind Pressure Humidity
    00:00 +1°C° 0 mm 3 mps 749 mmHg 87%
    01:00 +1°C° 0 mm 3 mps 749 mmHg 90%
    02:00 +2°C° 0 mm 2 mps 748 mmHg 92%
    03:00 +1°C° 0 mm 2 mps 748 mmHg 94%
    04:00 +1°C° 0 mm 2 mps 748 mmHg 94%
    05:00 +2°C° 0 mm 1 mps 748 mmHg 94%
    06:00 +2°C° 0 mm 1 mps 748 mmHg 94%
    07:00 +3°C° 0 mm 1 mps 748 mmHg 92%
    08:00 +3°C° 0 mm 1 mps 749 mmHg 91%
    09:00 +2°C° 0 mm 0 mps 749 mmHg 89%
    10:00 +4°C° 0 mm 1 mps 748 mmHg 82%
    11:00 +5°C° 0 mm 1 mps 748 mmHg 75%
    12:00 +6°C° 0 mm 2 mps 748 mmHg 68%
    13:00 +7°C° 0 mm 2 mps 748 mmHg 62%
    14:00 +8°C° 0 mm 2 mps 747 mmHg 56%
    15:00 +10°C° 0 mm 3 mps 747 mmHg 50%
    16:00 +9°C° 0 mm 2 mps 748 mmHg 54%
    17:00 +8°C° 0 mm 2 mps 748 mmHg 58%
    18:00 +9°C° 0 mm 1 mps 749 mmHg 62%
    19:00 +8°C° 0 mm 1 mps 749 mmHg 68%
    20:00 +7°C° 0 mm 1 mps 749 mmHg 73%
    21:00 +7°C° 0 mm 1 mps 750 mmHg 78%
    22:00 +6°C° 0 mm 1 mps 750 mmHg 82%
    23:00 +5°C° 0 mm 1 mps 750 mmHg 87%

    24 February, Sunday

    Time Temperature Precipitation Wind Pressure Humidity
    00:00 +5°C° 0 mm 1 mps 750 mmHg 91%
    01:00 +5°C° 0 mm 1 mps 750 mmHg 92%
    02:00 +3°C° 0 mm 0 mps 750 mmHg 94%
    03:00 +3°C° 0 mm 0 mps 750 mmHg 95%
    04:00 +3°C° 0 mm 0 mps 751 mmHg 95%
    05:00 +4°C° 0 mm 1 mps 751 mmHg 95%
    06:00 +4°C° 0 mm 1 mps 751 mmHg 95%
    07:00 +4°C° 0 mm 1 mps 751 mmHg 93%
    08:00 +5°C° 0 mm 1 mps 751 mmHg 90%
    09:00 +5°C° 0 mm 1 mps 751 mmHg 88%
    10:00 +6°C° 0 mm 1 mps 751 mmHg 82%
    11:00 +7°C° 0 mm 1 mps 751 mmHg 77%
    12:00 +8°C° 0 mm 1 mps 750 mmHg 71%
    13:00 +9°C° 0 mm 1 mps 750 mmHg 66%
    14:00 +9°C° 0 mm 2 mps 750 mmHg 61%
    15:00 +10°C° 0 mm 2 mps 750 mmHg 56%
    16:00 +9°C° 0 mm 2 mps 751 mmHg 60%
    17:00 +8°C° 0 mm 2 mps 751 mmHg 64%
    18:00 +8°C° 0 mm 2 mps 751 mmHg 68%
    19:00 +7°C° 0 mm 2 mps 752 mmHg 71%
    20:00 +5°C° 0 mm 3 mps 752 mmHg 75%
    21:00 +5°C° 0 mm 3 mps 752 mmHg 78%
    22:00 +4°C° 0 mm 3 mps 752 mmHg 80%
    23:00 +5°C° 0 mm 2 mps 752 mmHg 81%

    25 February, Monday

    Time Temperature Precipitation Wind Pressure Humidity
    00:00 +5°C° 0 mm 2 mps 752 mmHg 83%
    01:00 +4°C° 0.1 mm 2 mps 752 mmHg 83%
    02:00 +3°C° 0.1 mm 3 mps 752 mmHg 83%
    03:00 +3°C° 0.1 mm 3 mps 752 mmHg 83%
    04:00 +2°C° 0.1 mm 3 mps 752 mmHg 83%
    05:00 +2°C° 0.1 mm 3 mps 752 mmHg 83%
    06:00 +2°C° 0.1 mm 3 mps 752 mmHg 83%
    07:00 +1°C° 0.1 mm 3 mps 752 mmHg 83%
    08:00 +1°C° 0.1 mm 3 mps 752 mmHg 82%
    09:00 +1°C° 0.1 mm 3 mps 752 mmHg 81%
    10:00 +2°C° 0 mm 3 mps 751 mmHg 79%
    11:00 +2°C° 0 mm 3 mps 750 mmHg 76%
    12:00 +3°C° 0 mm 3 mps 749 mmHg 73%
    13:00 +3°C° 0 mm 3 mps 749 mmHg 72%
    14:00 +3°C° 0 mm 3 mps 748 mmHg 70%
    15:00 +4°C° 0 mm 3 mps 748 mmHg 68%
    16:00 +3°C° 0 mm 3 mps 748 mmHg 70%
    17:00 +3°C° 0 mm 3 mps 748 mmHg 71%
    18:00 +3°C° 0 mm 3 mps 747 mmHg 72%
    19:00 +3°C° 0 mm 4 mps 747 mmHg 72%
    20:00 +1°C° 0 mm 4 mps 747 mmHg 72%
    21:00 +1°C° 0 mm 4 mps 747 mmHg 73%
    22:00 +1°C° 0 mm 4 mps 746 mmHg 72%
    23:00 +1°C° 0 mm 4 mps 746 mmHg 71%
    Show more